| time (UTC) | temp C | wind direction | speed KPH | gust KPH | rain 1hr cm | rain 24hr cm | rain mn cm | humidity % | barometer mb |
| 20260508124604 | 10 | 30 | 0.0 | 0.0 | 0.00 | 1.91 | 0.03 | 95 | 1016.8 |
| 20260508123056 | 9 | 30 | 0.0 | 0.0 | 0.00 | 1.91 | 0.03 | 97 | 1016.6 |
| 20260508121552 | 8 | 30 | 0.0 | 0.0 | 0.00 | 1.91 | 0.03 | 97 | 1016.4 |
| 20260508120051 | 7 | 27 | 0.0 | 0.0 | 0.00 | 1.91 | 0.03 | 97 | 1016.3 |
| 20260508114550 | 6 | 27 | 0.0 | 0.0 | 0.00 | 1.96 | 0.03 | 96 | 1016.1 |
| 20260508113048 | 5 | 27 | 0.0 | 0.0 | 0.00 | 1.96 | 0.03 | 96 | 1015.8 |
| 20260508111546 | 5 | 27 | 0.0 | 0.0 | 0.00 | 1.96 | 0.03 | 96 | 1015.6 |
| 20260508110045 | 5 | 27 | 0.0 | 0.0 | 0.00 | 1.96 | 0.03 | 95 | 1015.3 |
| 20260508104544 | 5 | 27 | 0.0 | 0.0 | 0.00 | 1.96 | 0.03 | 95 | 1014.9 |
| 20260508103039 | 5 | 27 | 0.0 | 0.0 | 0.00 | 1.96 | 0.03 | 95 | 1014.5 |
| 20260508101541 | 5 | 27 | 0.0 | 0.0 | 0.00 | 1.96 | 0.03 | 95 | 1014.3 |
| 20260508100039 | 5 | 27 | 0.0 | 0.0 | 0.00 | 1.96 | 0.03 | 95 | 1014.3 |
| 20260508094533 | 5 | 27 | 0.0 | 0.0 | 0.00 | 1.96 | 0.03 | 95 | 1014.2 |
| 20260508093032 | 6 | 27 | 0.0 | 0.0 | 0.00 | 1.96 | 0.03 | 95 | 1014.0 |
| 20260508091532 | 6 | 27 | 0.0 | 0.0 | 0.00 | 1.96 | 0.03 | 95 | 1013.8 |
| 20260508090044 | 6 | 27 | 0.0 | 0.0 | 0.00 | 1.96 | 0.03 | 95 | 1013.8 |
| 20260508084526 | 6 | 27 | 0.0 | 0.0 | 0.00 | 1.98 | 0.03 | 95 | 1013.9 |
| 20260508083026 | 6 | 27 | 0.0 | 0.0 | 0.00 | 1.98 | 0.03 | 95 | 1013.6 |
| 20260508081524 | 6 | 27 | 0.0 | 0.0 | 0.00 | 1.98 | 0.03 | 95 | 1013.5 |
| 20260508080023 | 6 | 27 | 0.0 | 0.0 | 0.00 | 1.98 | 0.03 | 95 | 1013.2 |
| 20260508074524 | 6 | 27 | 0.0 | 0.0 | 0.00 | 1.98 | 0.03 | 95 | 1013.2 |
| 20260508073023 | 6 | 27 | 0.0 | 0.0 | 0.00 | 1.98 | 0.03 | 95 | 1013.2 |
| 20260508071517 | 7 | 27 | 0.0 | 0.0 | 0.00 | 1.98 | 0.03 | 95 | 1013.1 |
| 20260508070016 | 7 | 27 | 0.0 | 0.0 | 0.00 | 1.98 | 0.03 | 95 | 1013.0 |
| 20260508064514 | 7 | 27 | 0.0 | 0.0 | 0.00 | 2.01 | 0.03 | 95 | 1012.8 |
| 20260508063013 | 7 | 27 | 0.0 | 0.0 | 0.00 | 2.01 | 0.03 | 95 | 1012.7 |
| 20260508061511 | 7 | 27 | 0.0 | 0.0 | 0.00 | 2.01 | 0.03 | 95 | 1012.6 |
| 20260508060010 | 7 | 27 | 0.0 | 0.0 | 0.00 | 2.01 | 0.03 | 94 | 1012.7 |
| 20260508054508 | 7 | 27 | 0.0 | 0.0 | 0.03 | 2.03 | 0.03 | 94 | 1012.5 |
| 20260508053010 | 7 | 27 | 0.0 | 0.0 | 0.03 | 2.03 | 0.03 | 94 | 1012.5 |
| 20260508051505 | 8 | 27 | 0.0 | 0.0 | 0.03 | 2.03 | 0.03 | 94 | 1012.4 |
| 20260508050003 | 8 | 26 | 0.0 | 0.0 | 0.03 | 2.03 | 0.03 | 94 | 1012.4 |
| 20260508044601 | 8 | 27 | 0.0 | 0.0 | 0.00 | 2.03 | 0.00 | 94 | 1012.4 |
| 20260508043059 | 8 | 27 | 0.0 | 0.0 | 0.00 | 2.03 | 0.00 | 94 | 1012.2 |
| 20260508041559 | 8 | 27 | 0.0 | 0.0 | 0.00 | 2.03 | 0.00 | 94 | 1012.2 |
| 20260508040100 | 8 | 27 | 0.0 | 0.0 | 0.00 | 2.03 | 0.00 | 94 | 1012.3 |
| 20260508034555 | 8 | 27 | 0.0 | 0.0 | 0.00 | 2.11 | 2.03 | 94 | 1012.0 |
| 20260508033059 | 9 | 27 | 0.0 | 0.0 | 0.00 | 2.11 | 2.03 | 94 | 1012.1 |
| 20260508031557 | 9 | 27 | 0.0 | 0.0 | 0.00 | 2.11 | 2.03 | 93 | 1011.9 |
| 20260508030058 | 9 | 27 | 0.0 | 0.0 | 0.00 | 2.11 | 2.03 | 93 | 1011.5 |
| 20260508024613 | 10 | 27 | 0.0 | 0.0 | 0.00 | 2.18 | 2.03 | 93 | 1011.3 |
| 20260508023044 | 10 | 27 | 0.0 | 0.0 | 0.00 | 2.18 | 2.03 | 93 | 1011.4 |
| 20260508021548 | 10 | 27 | 0.0 | 0.0 | 0.00 | 2.18 | 2.03 | 93 | 1011.3 |
| 20260508020048 | 11 | 27 | 0.0 | 0.0 | 0.00 | 2.18 | 2.03 | 93 | 1010.7 |
| 20260508014545 | 11 | 27 | 0.0 | 0.0 | 0.00 | 2.26 | 2.03 | 93 | 1010.8 |
| 20260508013036 | 11 | 27 | 0.0 | 0.0 | 0.00 | 2.26 | 2.03 | 92 | 1010.2 |
| 20260508011533 | 12 | 27 | 0.0 | 0.0 | 0.00 | 2.26 | 2.03 | 93 | 1009.8 |
| 20260508010033 | 12 | 27 | 0.0 | 3.2 | 0.00 | 2.26 | 2.03 | 93 | 1009.7 |
| 20260508004540 | 13 | 27 | 0.0 | 0.0 | 0.00 | 2.29 | 2.03 | 93 | 1009.4 |
| 20260508003025 | 13 | 27 | 0.0 | 0.0 | 0.00 | 2.29 | 2.03 | 93 | 1009.1 |
| 20260508001532 | 13 | 27 | 0.0 | 0.0 | 0.00 | 2.29 | 2.03 | 93 | 1009.2 |
| 20260508000022 | 14 | 27 | 0.0 | 0.0 | 0.00 | 2.29 | 2.03 | 93 | 1009.1 |
| 20260507234520 | 14 | 74 | 0.0 | 0.0 | 0.00 | 2.29 | 2.03 | 93 | 1008.9 |
| 20260507233019 | 14 | 74 | 0.0 | 0.0 | 0.00 | 2.29 | 2.03 | 93 | 1009.1 |
| 20260507231518 | 14 | 74 | 0.0 | 0.0 | 0.00 | 2.29 | 2.03 | 92 | 1008.7 |
| 20260507230018 | 15 | 74 | 0.0 | 0.0 | 0.00 | 2.29 | 2.03 | 92 | 1008.2 |
| 20260507224519 | 15 | 74 | 0.0 | 0.0 | 0.00 | 2.29 | 2.03 | 93 | 1008.1 |
| 20260507223017 | 15 | 74 | 0.0 | 0.0 | 0.00 | 2.29 | 2.03 | 93 | 1007.8 |
| 20260507221517 | 15 | 74 | 0.0 | 0.0 | 0.00 | 2.29 | 2.03 | 93 | 1007.5 |
| 20260507220017 | 14 | 74 | 0.0 | 3.2 | 0.20 | 2.29 | 2.03 | 93 | 1007.2 |
| 20260507214516 | 14 | 80 | 0.0 | 8.0 | 0.76 | 2.29 | 2.03 | 93 | 1007.0 |
| 20260507213022 | 14 | 38 | 0.0 | 3.2 | 0.76 | 2.29 | 2.03 | 93 | 1006.9 |
| 20260507211514 | 15 | 32 | 0.0 | 1.6 | 0.81 | 2.29 | 2.03 | 93 | 1007.1 |
| 20260507210013 | 15 | 32 | 0.0 | 0.0 | 0.81 | 2.03 | 1.78 | 92 | 1006.6 |
| 20260507204511 | 15 | 32 | 0.0 | 0.0 | 0.48 | 1.52 | 1.27 | 93 | 1006.5 |
| 20260507203013 | 15 | 32 | 0.0 | 4.8 | 0.51 | 1.52 | 1.27 | 92 | 1006.7 |
| 20260507201508 | 15 | 30 | 0.0 | 6.4 | 0.48 | 1.45 | 1.22 | 92 | 1006.6 |
| 20260507200006 | 16 | 30 | 0.0 | 6.4 | 0.20 | 1.19 | 0.94 | 91 | 1006.3 |
| 20260507194506 | 16 | 28 | 0.0 | 11.3 | 0.03 | 1.02 | 0.76 | 89 | 1006.4 |
| 20260507193002 | 18 | 339 | 0.0 | 6.4 | 0.03 | 1.02 | 0.76 | 85 | 1006.0 |
| 20260507191503 | 21 | 327 | 1.6 | 12.9 | 0.00 | 0.99 | 0.71 | 75 | 1006.0 |
| 20260507190006 | 22 | 174 | 0.0 | 9.7 | 0.00 | 0.99 | 0.71 | 75 | 1005.1 |
| 20260507184502 | 22 | 170 | 0.0 | 1.6 | 0.00 | 0.99 | 0.71 | 75 | 1005.1 |
| 20260507183059 | 23 | 170 | 1.6 | 8.0 | 0.00 | 0.99 | 0.71 | 73 | 1005.7 |
| 20260507183005 | 23 | 169 | 1.6 | 8.0 | 0.00 | 0.99 | 0.71 | 74 | 1005.7 |
| 20260507181558 | 23 | 169 | 0.0 | 6.4 | 0.00 | 0.99 | 0.71 | 72 | 1005.7 |
| 20260507180056 | 23 | 167 | 0.0 | 3.2 | 0.00 | 0.99 | 0.71 | 71 | 1005.7 |
| 20260507174556 | 23 | 163 | 0.0 | 12.9 | 0.00 | 0.99 | 0.71 | 72 | 1005.8 |
| 20260507173123 | 22 | 174 | 0.0 | 8.0 | 0.00 | 0.99 | 0.71 | 74 | 1005.8 |
| 20260507171545 | 22 | 173 | 0.0 | 3.2 | 0.00 | 0.99 | 0.71 | 76 | 1006.2 |
| 20260507170041 | 21 | 171 | 0.0 | 4.8 | 0.00 | 0.99 | 0.71 | 86 | 1006.9 |
| 20260507164537 | 20 | 167 | 0.0 | 0.0 | 0.00 | 0.99 | 0.71 | 88 | 1006.8 |
| 20260507163038 | 20 | 167 | 0.0 | 0.0 | 0.00 | 0.99 | 0.71 | 90 | 1006.7 |
| 20260507161540 | 19 | 167 | 0.0 | 0.0 | 0.00 | 0.99 | 0.71 | 91 | 1006.7 |
| 20260507160032 | 18 | 167 | 0.0 | 0.0 | 0.00 | 0.99 | 0.71 | 93 | 1006.7 |
| 20260507154527 | 18 | 167 | 0.0 | 0.0 | 0.00 | 0.99 | 0.71 | 94 | 1006.6 |
| 20260507153023 | 18 | 167 | 0.0 | 0.0 | 0.00 | 0.99 | 0.71 | 95 | 1007.0 |
| 20260507151522 | 17 | 167 | 0.0 | 0.0 | 0.00 | 0.99 | 0.71 | 95 | 1007.2 |
| 20260507150033 | 17 | 167 | 0.0 | 0.0 | 0.00 | 0.99 | 0.71 | 95 | 1007.8 |
| 20260507144522 | 17 | 167 | 0.0 | 0.0 | 0.03 | 0.99 | 0.71 | 95 | 1007.5 |
| 20260507143020 | 17 | 167 | 0.0 | 0.0 | 0.03 | 0.99 | 0.71 | 95 | 1007.8 |
| 20260507141518 | 17 | 167 | 0.0 | 0.0 | 0.05 | 0.99 | 0.71 | 96 | 1007.2 |
| 20260507140015 | 17 | 167 | 0.0 | 0.0 | 0.05 | 0.99 | 0.71 | 96 | 1007.5 |
| 20260507134513 | 17 | 167 | 0.0 | 0.0 | 0.10 | 0.97 | 0.71 | 96 | 1007.1 |
| 20260507133019 | 16 | 167 | 0.0 | 0.0 | 0.28 | 0.97 | 0.71 | 96 | 1007.2 |
| 20260507131527 | 16 | 167 | 0.0 | 0.0 | 0.41 | 0.94 | 0.69 | 96 | 1007.1 |
| 20260507130118 | 16 | 167 | 0.0 | 0.0 | 0.51 | 0.94 | 0.69 | 95 | 1006.8 |